Time,TemperatureF,DewpointF,PressureIn,WindDirection,WindDirectionDegrees,WindSpeedMPH,WindSpeedGustMPH,Humidity,HourlyPrecipIn,Conditions,Clouds,dailyrainin,SoftwareType,DateUTC
2013-02-11 20:25:00,62.5,61.0,30.05,SSW,208,2.0,2.0,95,0.06,,,0.50,Wunderground v.1.15,2013-02-12 01:25:00,
2013-02-11 20:30:00,62.4,61.2,30.05,WSW,244,2.0,2.0,96,0.06,,,0.51,Wunderground v.1.15,2013-02-12 01:30:00,
2013-02-11 20:35:00,62.4,61.2,30.04,South,178,2.0,3.0,96,0.10,,,0.52,Wunderground v.1.15,2013-02-12 01:35:00,
2013-02-11 20:40:00,62.3,61.1,30.03,South,180,2.0,4.0,96,0.07,,,0.52,Wunderground v.1.15,2013-02-12 01:40:00,
2013-02-11 20:50:00,62.1,60.7,30.01,SSE,157,3.0,6.0,95,0.00,,,0.52,Wunderground v.1.15,2013-02-12 01:50:00,
2013-02-11 21:00:00,61.8,60.4,30.00,South,180,4.0,4.0,95,0.00,,,0.53,Wunderground v.1.15,2013-02-12 02:00:00,
2013-02-11 21:10:00,61.6,60.2,30.01,SSW,212,3.0,3.0,95,0.00,,,0.53,Wunderground v.1.15,2013-02-12 02:10:00,
2013-02-11 21:20:00,61.4,60.0,30.01,SW,226,3.0,4.0,95,0.00,,,0.54,Wunderground v.1.15,2013-02-12 02:20:00,
2013-02-11 21:25:00,61.3,59.6,30.01,SSW,203,3.0,4.0,94,0.00,,,0.54,Wunderground v.1.15,2013-02-12 02:25:00,
2013-02-11 21:35:00,61.1,59.4,29.99,South,182,2.0,4.0,94,0.00,,,0.54,Wunderground v.1.15,2013-02-12 02:35:00,
2013-02-11 21:45:00,60.8,59.1,29.98,South,182,3.0,5.0,94,0.00,,,0.54,Wunderground v.1.15,2013-02-12 02:45:00,
2013-02-11 21:50:00,60.7,59.0,29.99,SSW,201,2.0,2.0,94,0.00,,,0.54,Wunderground v.1.15,2013-02-12 02:50:00,
2013-02-11 22:00:00,60.4,58.7,29.99,South,175,2.0,2.0,94,0.00,,,0.54,Wunderground v.1.15,2013-02-12 03:00:00,
2013-02-11 22:10:00,60.2,58.5,29.99,SSE,151,3.0,3.0,94,0.00,,,0.54,Wunderground v.1.15,2013-02-12 03:10:00,
2013-02-11 22:20:00,59.9,58.2,29.98,South,186,2.0,3.0,94,0.00,,,0.54,Wunderground v.1.15,2013-02-12 03:20:00,
2013-02-11 22:30:00,59.8,57.8,29.97,SSW,209,2.0,3.0,93,0.00,,,0.54,Wunderground v.1.15,2013-02-12 03:30:00,
2013-02-11 22:40:00,59.6,57.9,29.97,SSW,213,2.0,2.0,94,0.00,,,0.55,Wunderground v.1.15,2013-02-12 03:40:00,
2013-02-11 22:50:00,59.4,57.7,29.98,SW,218,2.0,2.0,94,0.00,,,0.55,Wunderground v.1.15,2013-02-12 03:50:00,
2013-02-11 23:00:00,59.2,57.8,29.99,SSW,196,2.0,2.0,95,0.00,,,0.56,Wunderground v.1.15,2013-02-12 04:00:00,
2013-02-11 23:10:00,59.0,57.6,30.00,SW,232,2.0,2.0,95,0.00,,,0.56,Wunderground v.1.15,2013-02-12 04:10:00,
2013-02-11 23:15:00,58.9,57.5,29.99,SSW,199,1.0,3.0,95,0.00,,,0.56,Wunderground v.1.15,2013-02-12 04:15:00,
2013-02-11 23:25:00,58.8,57.4,30.00,West,278,2.0,3.0,95,0.00,,,0.57,Wunderground v.1.15,2013-02-12 04:25:00,
2013-02-11 23:30:00,58.7,57.3,30.00,SSW,211,1.0,1.0,95,0.05,,,0.58,Wunderground v.1.15,2013-02-12 04:30:00,
2013-02-11 23:40:00,58.6,57.2,30.00,SSW,205,1.0,2.0,95,0.07,,,0.59,Wunderground v.1.15,2013-02-12 04:40:00,
2013-02-11 23:50:00,58.5,57.4,29.99,SSW,194,1.0,1.0,96,0.11,,,0.61,Wunderground v.1.15,2013-02-12 04:50:00,